Flag for Germany Weather past 2 weeks in Bühl, Baden-Württemberg, Germany

37 °F

Light rain. Passing clouds.

Feels Like: 35 °F
Forecast: 28 / 38 °F
Wind: 3 mph from South

Location: Karlsruhe - Baden Wurttemberg

Current Time: Nov 26, 2015 at 6:51:55 AM

Latest Report: Nov 26, 2015 at 5:50 AM

Visibility: 5 mi

Pressure: 29.89 "Hg

Humidity: 100%

Dew point: 37 °F

Location of BühlLocation

Historic Weather in Bühl — Graph


Bühl temperature yesterday

Maximum temperature yesterday: 43 °F (at 1:20 PM)
Minimum temperature yesterday: 36 °F (at 3:50 AM)
Average temperature yesterday: 40 °F

Past Weeks' High & Low Weather Summary

High63 °F (Nov 18, 5:20 AM)100% (Nov 13, 4:50 AM)30.48 "Hg (Nov 13, 4:50 AM)
Low23 °F (Nov 24, 6:20 AM)44% (Nov 14, 1:50 PM)29.42 "Hg (Nov 21, 11:50 AM)
Average48 °F76%30.06 "Hg
* Reported Nov 11 5:20 AM — Nov 26 4:50 AM, Bühl, Weather by CustomWeather, © 2015

Note: Actual official high and low records may vary slightly from our data, if they occured in-between our weather recording intervals... More about our weather records


Bühl weather history for previous 24 hours

Time TempWeatherWind HumidityBarometerVisibility
4:50 AM
Thu, Nov 26
37 °FPassing clouds.3 mph100%29.86 "Hg5 mi
2:20 AM39 °FPassing clouds.2 mph93%29.83 "HgN/A
11:50 PM
Wed, Nov 25
39 °FPassing clouds.5 mph93%29.80 "HgN/A
11:20 PM39 °FPassing clouds.5 mph93%29.80 "HgN/A
10:50 PM39 °FPartly cloudy.5 mph100%29.80 "HgN/A
10:20 PM39 °FPartly cloudy.6 mph93%29.80 "HgN/A
9:50 PM39 °FScattered showers. Partly cloudy.6 mph100%29.77 "Hg5 mi
9:20 PM39 °FPartly cloudy.8 mph93%29.77 "Hg5 mi
8:50 PM41 °FScattered showers. Partly cloudy.7 mph93%29.77 "Hg5 mi
8:20 PM41 °FLight rain. Passing clouds.8 mph93%29.77 "HgN/A
7:50 PM41 °FPassing clouds.9 mph93%29.77 "HgN/A
7:20 PM41 °FLight rain. Passing clouds.8 mph93%29.77 "Hg6 mi
6:50 PM41 °FLight rain. Partly cloudy.9 mph93%29.74 "Hg6 mi
6:20 PM41 °FLight rain. Passing clouds.8 mph93%29.74 "Hg6 mi
5:50 PM41 °FRain. Passing clouds.9 mph93%29.74 "Hg4 mi
5:20 PM41 °FPassing clouds.9 mph93%29.74 "HgN/A
4:50 PM41 °FPassing clouds.10 mph87%29.74 "HgN/A
4:20 PM43 °FBroken clouds.9 mph87%29.74 "HgN/A
3:50 PM43 °FPartly sunny.8 mph87%29.74 "HgN/A
3:20 PM43 °FScattered showers. Broken clouds.7 mph87%29.74 "HgN/A
2:50 PM41 °FScattered showers. Broken clouds.7 mph93%29.77 "HgN/A
2:20 PM43 °FDrizzle. Broken clouds.10 mph87%29.77 "HgN/A
1:50 PM43 °FPartly sunny.9 mph87%29.77 "HgN/A
1:20 PM43 °FPartly sunny.10 mph87%29.77 "HgN/A
12:50 PM41 °FPartly sunny.10 mph93%29.77 "HgN/A
12:20 PM41 °FPartly sunny.13 mph93%29.80 "HgN/A
11:50 AM41 °FPartly sunny.12 mph87%29.80 "HgN/A
11:20 AM41 °FPartly sunny.13 mph87%29.80 "HgN/A
10:50 AM39 °FPartly sunny.15 mph93%29.83 "HgN/A
10:20 AM39 °FDrizzle. Partly sunny.12 mph93%29.83 "HgN/A
9:50 AM39 °FPartly sunny.12 mph93%29.83 "HgN/A
9:20 AM39 °FPartly sunny.12 mph87%29.83 "HgN/A
8:50 AM37 °FScattered showers. Partly sunny.13 mph93%29.83 "HgN/A
7:50 AM37 °FLight rain. Partly sunny.13 mph93%29.83 "HgN/A
7:20 AM37 °FSprinkles. Passing clouds.12 mph93%29.83 "HgN/A
6:50 AM37 °FSprinkles. Passing clouds.16 mph93%29.83 "Hg6 mi
Weather by CustomWeather, © 2015

See weather overviewHow to use our weather pages